COSMOS 2251 DEB, 33768

Orbit data source: Space-Track

COSMOS 2251 DEB, 33768 is space debris in LEO originally from a launch on Wed, 16 Jun 1993 UTC launched from the Plesetsk Missile And Space Complex (PKMTR). The debris from Iridium 33, an American commercial communications satellite, has been tracked extensively since its accidental collision with the defunct Russian satellite Cosmos 2251 in 2009. This event, occurring at high speed in low Earth orbit (LEO), generated thousands of pieces of space debris, significantly increasing the risk of further collisions. The Iridium 33 debris cloud has impacted space traffic management and orbital debris mitigation strategies, making it a subject of ongoing study in space situational awareness.

Loading next visibility...
Identifier
33768, 1993-036R
Orbit
LEO
Country
Flag of CISCIS
Related business
Manufacturer
Unknown
Mission
Spacecraft
Bus & Motor
Unknown
Mass
Unknown
Launch date (UTC)
1993-06-16 (33 years ago)
Launch vehicle
Unknown
Launch site
Plesetsk Missile And Space Complex (PKMTR)
Object type
Payload
Rocket body
Debris
Shape & HBR
Unknown shape, 0.5 m
Radar Cross Section
Medium (>0.1 m² and <1 m²)

Expand to show TLE details & history
Last TLE update: 20 hours ago

TLE from 20 hours ago
0 COSMOS 2251 DEB
1 33768U 93036R   26253.69536601  .00000057  00000-0  70825-4 0  9990
2 33768  74.0690 140.8428 0367287 238.3119 185.7595 13.58639810869896
Epoch: 2026-09-10T16:41Z
TLE epoch observation values (Epoch: 2026-09-10T16:41:19.623Z)
Latitude
59.61823°
Longitude
-70.24057°
Altitude
1,321.637 km
Speed
7.069 km/s
True Right ascension
11h 19m 16s
True Declination
59° 28' 44"
Sunlit
Object was in daylight at epoch
Visualization orbit readout
Latitude
Unknown
Longitude
Unknown
Altitude
Unknown
Speed
Unknown
Apparent Right ascension
Unknown
Apparent Declination
Unknown
Sunlit
N/A
Visualization observer readout
Local Sidereal Time
05:25:01
Azimuth
Unknown
Elevation
Unknown
Doppler factor
Unknown
Orbital elements
Apogee altitude
1,310.74 km
Perigee altitude
765.945 km
Semi-major axis
7,416.479 km
Eccentricity
0.03673
Inclination
74.069°
RAAN
140.8428°
Arg. of periapsis
238.3119°
True anomaly
185.35562°
Mean anomaly
185.7595°
Eccentric anomaly
185.55576°
Mean motion
3.39818 °/min
Orbital period
105.94 mins
BSTAR
0.000070825
Loading maneuver chart data...
Computing Atmospheric mass density...

Documentation

Showing up to 5 results
|